SCP
0 0 0 0 0 0 0 0 0 0 0 0 0 0 0 0 0 0 0 0 0 0 0 0 0 0 0 0 0 0 0 0 0 0 0 0 0 0 0 0 1 1 1
0 0 0 0 0 0 0 0 0 1 1 0 0 0 0 0 0 0 0 0 0 0 0 0 0 0 0 0 0 0 0 0 0 0 0 0 0 0 0 0 1 1 1
0 0 0 0 0 0 0 0 0 0 0 0 0 0 0 0 0 0 0 0 0 0 0 0 0 0 0 0 0 0 0 0 0 0 0 0 0 0 0 0 0 1 1
0 0 0 0 0 0 0 0 0 0 0 0 0 0 0 0 0 0 0 0 0 0 0 0 0 0 0 0 0 0 0 0 0 0 0 0 0 0 0 0 0 1 1
0 0 0 0 0 0 0 0 0 0 0 0 0 0 0 0 0 0 0 0 0 0 0 0 0 0 0 0 0 0 0 0 0 0 0 0 0 0 0 0 0 0 1
0 0 0 0 0 0 0 0 0 0 0 0 0 0 0 0 0 0 0 0 0 0 0 0 0 0 0 0 0 0 0 0 0 0 0 0 0 0 0 0 0 0 0
0 0 0 0 0 0 0 0 0 0 0 0 0 0 0 0 0 0 0 0 0 0 0 0 0 0 0 0 0 0 0 0 0 0 0 0 0 0 0 0 0 0 0
0 0 0 0 0 0 0 0 0 0 0 0 0 0 0 0 0 0 0 0 0 0 0 0 0 0 0 0 0 0 0 0 0 0 0 0 0 0 0 0 0 0 0
0 0 0 0 0 0 0 0 0 0 0 0 0 0 0 0 0 0 0 0 0 0 0 0 0 0 0 0 0 0 0 0 0 0 0 0 0 0 0 0 0 0 0
0 0 0 0 0 0 0 0 0 0 0 0 0 0 0 0 0 0 0 0 0 0 0 0 0 0 0 0 0 0 0 0 0 0 0 0 0 0 0 0 0 0 0
0 0 0 0 0 0 0 0 0 0 0 0 0 0 0 0 0 0 0 0 0 0 0 0 0 0 0 0 0 0 0 0 0 0 0 0 0 0 0 0 0 0 0
0 0 0 0 0 0 0 0 0 0 0 0 0 0 0 0 0 0 0 0 0 0 0 0 0 0 0 0 0 0 0 0 0 0 0 -0 0 0 0 0 0 0 0
0 0 0 0 0 0 0 0 0 0 0 0 0 0 0 0 0 0 0 0 0 0 0 0 0 0 0 0 0 0 0 0 0 0 0 0 0 -0 -0 0 0 0 0
0 0 0 0 0 0 0 0 0 0 0 0 0 0 0 0 0 0 0 0 0 0 0 0 0 0 0 0 0 0 0 0 -0 -0 0 0 -0 -0 -0 0 0 0 0
0 0 0 0 0 0 0 0 0 0 0 0 0 0 0 0 0 0 0 0 0 0 0 0 0 0 0 0 0 0 0 0 -0 -0 -0 0 -0 -0 0 0 0 0 0
0 0 0 0 0 0 0 0 0 0 0 0 0 0 0 0 0 0 0 0 0 0 0 0 0 0 0 -0 -0 -0 -0 0 0 0 0 0 0 0 0 0 0 -0 0
0 0 0 0 0 0 0 0 0 0 0 0 0 0 0 0 0 0 0 0 0 0 0 -0 -0 0 0 -0 -0 -0 0 -0 -0 0 0 0 0 0 0 -0 -0 -0 -0
0 0 0 0 0 0 0 0 0 0 0 0 0 0 0 0 0 0 0 0 0 0 0 -0 0 0 0 -0 -0 0 0 0 -0 -0 0 0 0 -0 -0 -0 -0 -0 -0
0 0 0 0 0 0 0 0 0 0 0 0 0 0 0 0 0 0 0 0 0 0 0 0 -0 -0 0 -0 -0 0 0 0 -0 -0 -0 -0 -0 -0 -0 -0 -0 -0 -0
0 0 0 0 0 0 0 0 0 0 0 0 0 0 0 -0 -0 0 0 0 0 0 0 0 0 0 0 -0 -0 0 0 0 0 0 -0 -0 -0 -0 -0 -0 -0 -0 -0
0 0 0 0 0 0 0 0 0 0 0 0 0 0 -0 0 0 0 0 0 -0 0 0 0 0 0 0 0 -0 -0 0 0 0 -0 0 -0 -0 -0 -0 -0 -0 -0 -0
0 0 0 0 0 0 0 0 0 0 0 0 -0 -0 -0 0 0 0 0 0 0 0 -0 0 0 0 -0 0 0 -0 -0 -0 0 -0 -0 -0 0 -0 -0 -0 -0 -0 0
0 0 0 0 0 0 0 0 -0 -0 0 -0 -0 -0 -0 -0 -0 0 -0 0 -0 0 0 0 0 0 -0 -0 -0 0 0 -0 -0 -0 0 0 0 0 -0 -0 -0 -0 -0
0 0 0 0 0 0 -0 -0 -0 0 0 -0 0 0 0 -0 -0 -0 -0 -0 -0 -0 0 -0 -0 0 0 0 0 0 0 0 -0 -0 0 -0 -0 -0 -0 -0 -0 -0 -0
0 0 0 0 -0 -0 -0 -0 -0 0 0 -0 -0 -0 -0 0 0 0 -0 -0 -0 -0 0 -0 0 0 0 0 0 0 0 0 0 0 0 -0 -0 -0 -0 -0 -0 0 0
0 0 0 0 -0 -0 -0 -0 0 0 0 -0 -0 0 0 0 0 0 0 0 0 -0 -0 -0 0 0 0 0 0 0 -0 -0 -0 -0 -0 -0 -0 -0 -0 0 0 0 0
Wind_Speed_500mb
43 38 35 32 30 29 27 28 30 34 37 38 34 39 43 43 43 43 44 46 48 52 52 58 64 68 71 75 71 69 66 63 56 58 61 61 61 65 67 69 69 70 70
46 45 40 34 33 30 30 29 38 40 47 42 37 46 51 47 46 49 51 50 51 56 63 70 72 69 70 71 68 66 65 62 52 58 57 64 60 58 62 64 68 71 69
49 48 42 36 32 31 29 29 37 43 46 51 41 35 35 40 46 54 58 63 62 73 79 78 69 63 61 64 60 58 58 63 57 53 55 43 51 44 46 53 57 57 66
50 46 42 34 29 24 29 33 34 35 39 42 30 38 43 44 51 67 67 71 70 68 70 64 61 61 58 60 59 57 57 54 57 52 56 65 64 58 49 49 43 43 50
49 45 36 30 20 12 17 26 27 29 27 29 36 46 55 58 63 66 73 70 70 58 59 60 59 56 53 51 54 58 63 69 68 59 60 58 61 58 61 61 54 50 45
38 36 22 14 11 5 5 15 17 22 27 36 48 60 70 78 79 72 67 64 60 60 57 51 55 55 56 53 53 52 52 54 56 60 70 59 58 55 57 60 59 56 55
27 28 21 15 9 5 3 5 16 25 39 52 63 71 76 78 66 63 59 64 59 53 52 54 54 58 59 60 59 62 62 56 55 67 56 67 70 61 55 55 52 53 54
20 17 16 14 9 4 3 11 23 37 51 62 69 68 66 56 58 52 56 53 53 51 59 62 64 64 61 61 62 60 59 56 56 53 63 64 69 61 65 49 52 52 55
16 18 17 14 9 3 10 22 37 47 57 63 63 62 59 54 47 52 53 50 56 63 63 65 66 66 63 63 59 60 59 53 55 51 52 60 61 63 61 60 50 50 50
21 21 17 13 6 7 16 31 44 51 55 57 55 52 50 43 47 49 54 58 63 66 65 65 65 67 66 62 58 57 56 55 54 51 49 54 53 52 54 62 51 55 44
23 20 16 9 5 12 22 35 44 49 48 50 49 46 43 47 49 51 54 63 63 64 64 63 65 65 62 58 54 53 53 53 52 48 50 49 44 44 53 44 53 62 53
23 19 13 6 10 19 29 36 43 43 42 44 43 42 44 47 49 52 58 60 62 61 58 59 62 60 58 56 54 53 49 48 48 44 40 44 41 43 42 45 46 58 55
21 15 8 9 17 25 31 36 39 41 44 43 41 42 43 47 51 53 53 56 58 57 57 56 58 57 54 54 51 50 47 42 40 40 40 40 39 39 37 36 39 41 51
16 10 10 15 20 26 32 37 39 45 42 43 41 42 45 46 50 50 51 54 55 56 55 53 54 50 47 44 50 45 31 26 26 29 33 36 36 33 37 33 35 34 44
14 13 14 18 23 31 36 38 41 42 44 41 41 42 41 42 44 47 50 53 52 51 50 51 49 44 41 43 42 29 5 13 10 11 17 22 27 31 35 32 29 23 33
13 12 16 22 28 35 39 40 42 44 41 40 38 36 38 39 46 47 49 50 50 51 51 51 50 48 46 44 29 26 20 13 6 5 11 16 21 22 30 32 30 34 34
11 15 20 24 30 35 37 39 41 38 37 34 32 35 39 44 47 47 47 47 52 51 50 52 52 57 53 41 26 20 19 16 11 9 5 5 8 13 22 29 31 32 38
13 16 20 26 31 32 33 35 35 34 30 32 41 42 45 40 47 50 48 45 55 57 59 56 56 59 53 45 35 34 36 35 36 29 20 13 11 13 18 20 21 15 11
15 17 22 26 26 29 30 32 31 30 34 39 42 41 38 35 47 56 58 53 49 55 62 65 63 62 62 50 41 44 53 56 59 60 55 52 48 42 43 47 52 51 50
16 16 21 22 24 27 32 34 38 41 38 35 42 38 33 31 39 44 39 51 57 49 54 62 69 72 62 58 59 55 59 64 65 65 64 62 57 51 52 54 52 58 52
14 16 19 21 29 36 36 36 32 32 32 34 34 31 32 33 39 38 39 42 39 46 53 59 60 63 69 60 52 51 55 56 57 59 58 57 53 53 54 54 48 47 45
14 17 16 21 21 21 24 29 32 33 31 29 30 32 34 36 37 39 42 42 43 43 42 49 53 58 47 53 59 52 47 45 49 52 48 47 41 40 41 42 39 38 31
16 16 19 21 18 18 22 28 33 33 33 29 30 31 33 33 36 39 42 44 43 42 40 41 40 43 46 40 45 43 48 49 48 44 41 38 41 38 36 31 35 29 25
18 20 20 17 16 16 20 26 30 32 31 33 33 32 32 33 33 34 39 42 47 44 41 36 40 37 41 53 48 32 28 28 27 28 33 33 32 29 28 27 27 24 21
22 19 17 15 13 13 18 24 28 31 31 32 34 33 34 34 33 31 38 40 53 52 48 45 31 39 38 46 45 42 32 26 24 23 22 25 26 27 28 27 25 23 22
23 18 14 13 10 12 16 22 26 26 32 33 33 36 34 33 32 30 28 38 45 50 49 45 43 33 32 27 30 34 34 33 28 24 27 31 30 30 28 27 25 25 24
Wind_Direction_500mb
221 220 221 223 230 238 253 267 274 280 284 287 288 291 293 293 290 292 291 292 294 296 295 298 297 294 292 288 285 287 286 282 279 279 277 275 272 265 258 253 250 249 248
221 220 222 224 234 246 259 268 272 276 278 282 285 287 287 285 284 287 292 294 296 295 296 295 294 291 289 285 284 282 281 278 273 269 273 277 273 263 259 253 250 248 246
222 221 224 229 241 254 266 270 270 276 278 280 294 298 296 296 294 292 289 292 291 294 295 296 294 290 288 287 283 280 277 277 273 264 258 269 263 273 263 252 248 247 245
229 228 229 236 251 257 253 269 276 279 282 289 293 297 303 300 293 297 296 291 295 293 295 295 293 291 286 279 279 277 266 267 267 265 259 255 259 267 274 256 254 246 248
229 228 228 240 232 243 256 274 279 285 290 298 301 303 301 299 300 299 297 297 301 297 294 294 293 290 287 283 278 279 273 263 263 263 259 258 255 251 252 258 254 251 243
222 218 216 207 196 179 261 274 287 293 301 303 303 305 306 306 305 305 305 305 298 298 298 296 289 294 293 293 288 281 278 279 267 260 254 252 252 250 246 251 250 251 249
191 196 204 200 179 143 90 358 299 308 308 310 311 311 310 311 313 309 309 305 309 307 305 302 303 303 297 293 289 283 276 276 275 262 257 251 247 246 252 253 255 254 248
191 195 201 186 168 123 6 332 320 315 314 314 314 316 316 314 313 311 313 312 309 308 308 310 309 308 304 298 294 287 283 276 275 274 253 255 251 247 240 251 253 252 248
183 179 165 148 138 74 325 318 318 320 318 319 320 320 319 317 317 317 315 312 310 310 311 312 312 313 309 305 300 292 286 277 272 268 262 259 260 251 239 241 247 249 250
178 166 151 140 117 15 343 326 323 322 323 322 322 321 321 318 318 317 318 319 318 318 316 315 313 311 309 306 298 291 287 284 275 265 261 262 259 248 244 241 245 239 246
174 161 147 125 47 2 340 329 327 327 326 325 324 324 323 321 321 326 323 326 325 324 322 321 316 313 309 308 301 290 284 277 273 261 254 259 256 249 245 243 241 244 238
161 150 134 87 11 350 338 335 331 330 329 327 325 325 324 328 330 328 329 332 329 329 326 324 322 320 316 312 305 297 286 275 269 265 257 252 254 252 250 248 236 237 243
146 128 92 27 0 347 339 336 334 331 331 330 330 330 332 335 337 334 339 336 337 335 332 331 327 324 324 319 312 299 289 280 270 260 250 246 248 251 250 249 236 231 236
126 100 43 9 352 345 340 339 336 335 337 338 337 337 341 344 339 343 346 347 343 341 340 339 335 333 332 334 337 316 280 286 277 256 247 245 240 249 249 236 234 230 232
97 58 23 359 348 345 343 342 341 343 345 343 345 348 352 353 353 359 1 356 353 354 353 352 352 350 352 353 351 3 343 302 293 258 252 248 244 251 242 238 238 243 228
77 39 11 357 351 348 348 347 348 347 351 354 354 2 9 6 9 6 9 4 9 11 10 11 10 8 8 360 8 28 44 45 37 300 284 269 263 248 235 236 242 237 234
65 27 9 359 355 354 353 354 351 355 1 3 16 20 17 16 12 12 16 18 20 19 21 26 26 28 20 11 24 38 45 43 20 358 331 281 262 233 223 222 228 229 235
52 23 8 1 358 357 359 1 8 12 20 36 29 24 21 9 24 27 26 27 28 31 32 33 36 39 33 33 44 62 64 63 61 60 62 73 98 116 132 157 167 151 146
51 23 5 7 6 5 5 23 28 34 40 35 20 8 3 11 37 34 31 32 30 33 36 35 40 44 46 42 49 70 76 75 74 71 69 73 80 90 97 101 100 97 92
39 23 20 19 23 25 41 41 45 42 38 12 5 9 30 14 16 11 15 30 25 32 35 35 38 43 47 51 54 64 76 77 75 75 75 72 74 79 81 81 84 84 84
53 42 38 44 54 60 54 48 31 19 10 7 13 16 17 9 10 12 16 16 18 31 35 30 33 40 42 46 50 55 62 69 73 73 72 75 77 78 78 79 76 80 80
61 59 63 73 64 55 44 31 19 12 11 9 15 17 18 17 15 17 19 16 15 14 17 25 25 28 36 35 42 52 57 61 67 66 67 68 68 72 75 78 80 82 78
82 85 89 80 70 55 38 22 11 15 21 15 16 11 10 12 18 19 19 21 19 18 17 23 28 28 29 37 40 31 49 55 60 69 69 66 59 56 59 68 72 63 63
106 104 93 84 70 48 32 17 12 17 20 19 14 11 8 14 13 21 22 18 21 22 19 24 24 26 25 34 39 34 36 39 40 38 47 49 51 56 57 53 50 51 55
124 114 102 85 74 42 20 10 16 18 20 18 19 18 16 16 19 11 17 29 26 27 27 30 23 24 25 28 24 27 32 38 40 42 44 42 41 42 43 43 45 44 44
136 121 106 85 50 21 8 4 15 17 20 17 18 14 17 20 23 28 16 10 18 28 32 36 40 31 26 21 27 36 49 62 57 57 55 49 45 42 38 35 32 31 31
Wind_Speed_850mb
43 38 35 32 30 29 27 28 30 34 37 38 34 39 43 43 43 43 44 46 48 52 52 58 64 68 71 75 71 69 66 63 56 58 61 61 61 65 67 69 69 70 70
46 45 40 34 33 30 30 29 38 40 47 42 37 46 51 47 46 49 51 50 51 56 63 70 72 69 70 71 68 66 65 62 52 58 57 64 60 58 62 64 68 71 69
49 48 42 36 32 31 29 29 37 43 46 51 41 35 35 40 46 54 58 63 62 73 79 78 69 63 61 64 60 58 58 63 57 53 55 43 51 44 46 53 57 57 66
50 46 42 34 29 24 29 33 34 35 39 42 30 38 43 44 51 67 67 71 70 68 70 64 61 61 58 60 59 57 57 54 57 52 56 65 64 58 49 49 43 43 50
49 45 36 30 20 12 17 26 27 29 27 29 36 46 55 58 63 66 73 70 70 58 59 60 59 56 53 51 54 58 63 69 68 59 60 58 61 58 61 61 54 50 45
38 36 22 14 11 5 5 15 17 22 27 36 48 60 70 78 79 72 67 64 60 60 57 51 55 55 56 53 53 52 52 54 56 60 70 59 58 55 57 60 59 56 55
27 28 21 15 9 5 3 5 16 25 39 52 63 71 76 78 66 63 59 64 59 53 52 54 54 58 59 60 59 62 62 56 55 67 56 67 70 61 55 55 52 53 54
20 17 16 14 9 4 3 11 23 37 51 62 69 68 66 56 58 52 56 53 53 51 59 62 64 64 61 61 62 60 59 56 56 53 63 64 69 61 65 49 52 52 55
16 18 17 14 9 3 10 22 37 47 57 63 63 62 59 54 47 52 53 50 56 63 63 65 66 66 63 63 59 60 59 53 55 51 52 60 61 63 61 60 50 50 50
21 21 17 13 6 7 16 31 44 51 55 57 55 52 50 43 47 49 54 58 63 66 65 65 65 67 66 62 58 57 56 55 54 51 49 54 53 52 54 62 51 55 44
23 20 16 9 5 12 22 35 44 49 48 50 49 46 43 47 49 51 54 63 63 64 64 63 65 65 62 58 54 53 53 53 52 48 50 49 44 44 53 44 53 62 53
23 19 13 6 10 19 29 36 43 43 42 44 43 42 44 47 49 52 58 60 62 61 58 59 62 60 58 56 54 53 49 48 48 44 40 44 41 43 42 45 46 58 55
21 15 8 9 17 25 31 36 39 41 44 43 41 42 43 47 51 53 53 56 58 57 57 56 58 57 54 54 51 50 47 42 40 40 40 40 39 39 37 36 39 41 51
16 10 10 15 20 26 32 37 39 45 42 43 41 42 45 46 50 50 51 54 55 56 55 53 54 50 47 44 50 45 31 26 26 29 33 36 36 33 37 33 35 34 44
14 13 14 18 23 31 36 38 41 42 44 41 41 42 41 42 44 47 50 53 52 51 50 51 49 44 41 43 42 29 5 13 10 11 17 22 27 31 35 32 29 23 33
13 12 16 22 28 35 39 40 42 44 41 40 38 36 38 39 46 47 49 50 50 51 51 51 50 48 46 44 29 26 20 13 6 5 11 16 21 22 30 32 30 34 34
11 15 20 24 30 35 37 39 41 38 37 34 32 35 39 44 47 47 47 47 52 51 50 52 52 57 53 41 26 20 19 16 11 9 5 5 8 13 22 29 31 32 38
13 16 20 26 31 32 33 35 35 34 30 32 41 42 45 40 47 50 48 45 55 57 59 56 56 59 53 45 35 34 36 35 36 29 20 13 11 13 18 20 21 15 11
15 17 22 26 26 29 30 32 31 30 34 39 42 41 38 35 47 56 58 53 49 55 62 65 63 62 62 50 41 44 53 56 59 60 55 52 48 42 43 47 52 51 50
16 16 21 22 24 27 32 34 38 41 38 35 42 38 33 31 39 44 39 51 57 49 54 62 69 72 62 58 59 55 59 64 65 65 64 62 57 51 52 54 52 58 52
14 16 19 21 29 36 36 36 32 32 32 34 34 31 32 33 39 38 39 42 39 46 53 59 60 63 69 60 52 51 55 56 57 59 58 57 53 53 54 54 48 47 45
14 17 16 21 21 21 24 29 32 33 31 29 30 32 34 36 37 39 42 42 43 43 42 49 53 58 47 53 59 52 47 45 49 52 48 47 41 40 41 42 39 38 31
16 16 19 21 18 18 22 28 33 33 33 29 30 31 33 33 36 39 42 44 43 42 40 41 40 43 46 40 45 43 48 49 48 44 41 38 41 38 36 31 35 29 25
18 20 20 17 16 16 20 26 30 32 31 33 33 32 32 33 33 34 39 42 47 44 41 36 40 37 41 53 48 32 28 28 27 28 33 33 32 29 28 27 27 24 21
22 19 17 15 13 13 18 24 28 31 31 32 34 33 34 34 33 31 38 40 53 52 48 45 31 39 38 46 45 42 32 26 24 23 22 25 26 27 28 27 25 23 22
23 18 14 13 10 12 16 22 26 26 32 33 33 36 34 33 32 30 28 38 45 50 49 45 43 33 32 27 30 34 34 33 28 24 27 31 30 30 28 27 25 25 24
Wind_Direction_850mb
221 220 221 223 230 238 253 267 274 280 284 287 288 291 293 293 290 292 291 292 294 296 295 298 297 294 292 288 285 287 286 282 279 279 277 275 272 265 258 253 250 249 248
221 220 222 224 234 246 259 268 272 276 278 282 285 287 287 285 284 287 292 294 296 295 296 295 294 291 289 285 284 282 281 278 273 269 273 277 273 263 259 253 250 248 246
222 221 224 229 241 254 266 270 270 276 278 280 294 298 296 296 294 292 289 292 291 294 295 296 294 290 288 287 283 280 277 277 273 264 258 269 263 273 263 252 248 247 245
229 228 229 236 251 257 253 269 276 279 282 289 293 297 303 300 293 297 296 291 295 293 295 295 293 291 286 279 279 277 266 267 267 265 259 255 259 267 274 256 254 246 248
229 228 228 240 232 243 256 274 279 285 290 298 301 303 301 299 300 299 297 297 301 297 294 294 293 290 287 283 278 279 273 263 263 263 259 258 255 251 252 258 254 251 243
222 218 216 207 196 179 261 274 287 293 301 303 303 305 306 306 305 305 305 305 298 298 298 296 289 294 293 293 288 281 278 279 267 260 254 252 252 250 246 251 250 251 249
191 196 204 200 179 143 90 358 299 308 308 310 311 311 310 311 313 309 309 305 309 307 305 302 303 303 297 293 289 283 276 276 275 262 257 251 247 246 252 253 255 254 248
191 195 201 186 168 123 6 332 320 315 314 314 314 316 316 314 313 311 313 312 309 308 308 310 309 308 304 298 294 287 283 276 275 274 253 255 251 247 240 251 253 252 248
183 179 165 148 138 74 325 318 318 320 318 319 320 320 319 317 317 317 315 312 310 310 311 312 312 313 309 305 300 292 286 277 272 268 262 259 260 251 239 241 247 249 250
178 166 151 140 117 15 343 326 323 322 323 322 322 321 321 318 318 317 318 319 318 318 316 315 313 311 309 306 298 291 287 284 275 265 261 262 259 248 244 241 245 239 246
174 161 147 125 47 2 340 329 327 327 326 325 324 324 323 321 321 326 323 326 325 324 322 321 316 313 309 308 301 290 284 277 273 261 254 259 256 249 245 243 241 244 238
161 150 134 87 11 350 338 335 331 330 329 327 325 325 324 328 330 328 329 332 329 329 326 324 322 320 316 312 305 297 286 275 269 265 257 252 254 252 250 248 236 237 243
146 128 92 27 0 347 339 336 334 331 331 330 330 330 332 335 337 334 339 336 337 335 332 331 327 324 324 319 312 299 289 280 270 260 250 246 248 251 250 249 236 231 236
126 100 43 9 352 345 340 339 336 335 337 338 337 337 341 344 339 343 346 347 343 341 340 339 335 333 332 334 337 316 280 286 277 256 247 245 240 249 249 236 234 230 232
97 58 23 359 348 345 343 342 341 343 345 343 345 348 352 353 353 359 1 356 353 354 353 352 352 350 352 353 351 3 343 302 293 258 252 248 244 251 242 238 238 243 228
77 39 11 357 351 348 348 347 348 347 351 354 354 2 9 6 9 6 9 4 9 11 10 11 10 8 8 360 8 28 44 45 37 300 284 269 263 248 235 236 242 237 234
65 27 9 359 355 354 353 354 351 355 1 3 16 20 17 16 12 12 16 18 20 19 21 26 26 28 20 11 24 38 45 43 20 358 331 281 262 233 223 222 228 229 235
52 23 8 1 358 357 359 1 8 12 20 36 29 24 21 9 24 27 26 27 28 31 32 33 36 39 33 33 44 62 64 63 61 60 62 73 98 116 132 157 167 151 146
51 23 5 7 6 5 5 23 28 34 40 35 20 8 3 11 37 34 31 32 30 33 36 35 40 44 46 42 49 70 76 75 74 71 69 73 80 90 97 101 100 97 92
39 23 20 19 23 25 41 41 45 42 38 12 5 9 30 14 16 11 15 30 25 32 35 35 38 43 47 51 54 64 76 77 75 75 75 72 74 79 81 81 84 84 84
53 42 38 44 54 60 54 48 31 19 10 7 13 16 17 9 10 12 16 16 18 31 35 30 33 40 42 46 50 55 62 69 73 73 72 75 77 78 78 79 76 80 80
61 59 63 73 64 55 44 31 19 12 11 9 15 17 18 17 15 17 19 16 15 14 17 25 25 28 36 35 42 52 57 61 67 66 67 68 68 72 75 78 80 82 78
82 85 89 80 70 55 38 22 11 15 21 15 16 11 10 12 18 19 19 21 19 18 17 23 28 28 29 37 40 31 49 55 60 69 69 66 59 56 59 68 72 63 63
106 104 93 84 70 48 32 17 12 17 20 19 14 11 8 14 13 21 22 18 21 22 19 24 24 26 25 34 39 34 36 39 40 38 47 49 51 56 57 53 50 51 55
124 114 102 85 74 42 20 10 16 18 20 18 19 18 16 16 19 11 17 29 26 27 27 30 23 24 25 28 24 27 32 38 40 42 44 42 41 42 43 43 45 44 44
136 121 106 85 50 21 8 4 15 17 20 17 18 14 17 20 23 28 16 10 18 28 32 36 40 31 26 21 27 36 49 62 57 57 55 49 45 42 38 35 32 31 31